Torna al catalogo

NOAA 16 DEB

AttivoPO
NORAD 42401·DEBRIS·🇺🇸 United States

Lanciato Sep 21, 2000 da Vandenberg Space Force Base

Loading…

Prossimi Passaggi (prossime 24 ore)

TLE

AggiornatoSource: Space-Track

Epoca: Sep 14, 2026, 03:19 UTC

1 42401U 00055SV  26257.13850883  .00004665  00000-0  95637-3 0  9993
2 42401  98.9421 141.7331 0041689 128.3796 232.1159 14.60710975551419

Traccia NOAA 16 DEB in tempo reale con AllMySat

Download on the App Store